Tracking 19717 objects as of 25-Jun-2019
HD Live streaming from Space Station
objects crossing your sky now

COSMOS 2201

Track COSMOS 2201 now!
10-day predictions
COSMOS 2201 is classified as:


NORAD ID: 22038
Int'l Code: 1992-042E
Perigee: 1,416.6 km
Apogee: 1,429.5 km
Inclination: 82.6 °
Period: 114.1 minutes
Semi major axis: 7794 km
RCS: 1.1289 m2 (large)
Launch date: July 13, 1992
Source: Commonwealth of Independent States (former USSR) (CIS)
Launch site: PLESETSK MISSILE AND SPACE COMPLEX (PKMTR)
aabbcc
Your satellite tracking list
Your tracking list is empty




NASA's NSSDC Master Catalog

Two Line Element Set (TLE):
1 22038U 92042E   19175.71110326 +.00000020 +00000-0 +53178-4 0  9996
2 22038 082.5917 082.8622 0008273 337.7557 050.8266 12.61705015240780
Source of the keplerian elements: AFSPC